Погода в Красноселькупе

Погода в Красноселькупе : погода сейчас, прогноз погоды и архив. Всё, что Вы хотите узнать о погоде в Красноселькупе!

Поиск расширенной информации на нашем сайте:

Другие новости

Новости СМИ2

Главная страница сайта

Новости сайта

03.07.2017

Напоминаем, что на нашем специализированном сайте Метеоцентр.Азия вы можете получить высокодетализированные автоматические прогнозы погоды по пунктам России, СНГ и мира в авиационном формате (включающие направление и скорость ветра, видимость, явления погоды, количество и форму облачности, нижнюю и верхнюю границу облачности).

Рекомендуем: Ответы анимационные картинки грузовых машин.

Погода в Красноселькупе - сегодня

Время (UTC), дата Ветер
(°,м/с) 
Видим.   Явления Облачность Т
(°С)
Тd
(°С)
f(%) Тe
(°С)
Pmin
(гПа)
dP
(гПа)
Po
(мм)
O2
(г/м3)
Тmin Tmax R s Состояние
почвы
12 20.09.17 020 (С) 20000 м    1/0 средняя 
[Ac trans]
+8.5 -2.1 47 +9  1017.7  -0.2  761  298           
15 20.09.17 020 (С) 20000 м    ясно 
+2.9 -1.7 72 +2  1018  0.2  761  304    +11       
18 20.09.17 360 (С) 20000 м    ясно 
+1.1 -2.8 75 1018.3  0.3  761  306           
21 20.09.17 тихо ()   20000 м    ясно 
-1 -3.2 85 -1  1016.1  -2.2  760  308           
00 21.09.17 330 (СЗ) 20000 м    10/0 верхняя 
[Ci fib]
-1.6 -3 90 -3  1016.4  0.3  760  308           
03 21.09.17 330 (СЗ) 0500 м  туман  ?/?  
-1.4 -2.2 94 -4  1016.6  0.2  760  308  -1.9        влажная 
06 21.09.17 350 (С) 20000 м    10/10 210 м 
[St]
+0.1 -0.9 93 -2  1015.7  -0.9  759  306           
09 21.09.17 330 (СЗ) 20000 м    10/10 480 м 
[Sc]
+2.1 -1.4 78 +1  1014.7  -1  759  304           
12 21.09.17 360 (С) 4000 м  слаб. ливневой снег  10/10 240 м кучево-дожд. 
[Cb cap]
+0.6 -0.3 94 1014.8  0.1  759  305           
15 21.09.17 010 (С) 4000 м  слаб. ливневой снег  10/10 180 м кучево-дожд. 
[Cb cap]
+0.4 -0.5 94 -2  1014.4  -0.4  758  305    +2.2     
18 21.09.17 360 (С) 5{11}  2000 м  слаб. ливневой снег  9/9 330 м кучево-дожд. 
[Cb cap]
-1 -2.3 91 -4  1015.1  0.7  759  307           
21 21.09.17 350 (С) 5{11}  20000 м  {ливн. осадки}  10/10 750 м 
[Sc]
-1.1 -4.1 80 -4  1015.7  0.6  759  308           
00 22.09.17 350 (С) 5{11}  20000 м  {ливн. осадки}  3/3 600 м 
[Sc]
-2.4 -5.6 79 -6  1016.3  0.6  760  310           
03 22.09.17 360 (С) 6-11{11}  20000 м    3/3 300 м верхняя 
[Sc|Ci fib]
-1.3 -5 76 -5  1016.8  0.5  760  308  -2.5    0.8    замёрзшая 
06 22.09.17 360 (С) 6-12{13}  20000 м    9/9 300 м кучево-дожд. 
[Cb cap]
+1.1 -4.5 66 -2  1017.6  0.8  761  306           
09 22.09.17 340 (С) 7-12{12}  20000 м    10/10 480 м кучево-дожд. 
[Cb cap]
+1.3 -4.4 66 -2  1019  1.5  762  306           
12 22.09.17 340 (С) 7-12{13}  20000 м    10/10 600 м 
[Sc]
+1.2 -4.6 65 -2  1020.4  1.3  763  307           
15 22.09.17 350 (С) 7-12{13}  20000 м    10/10 600 м 
[Sc]
+1.2 -4 68 -2  1020.9  0.5  763  307    +1.7       
18 22.09.17 360 (С) 5-10{12}  20000 м    10/10 800 м 
[Sc]
+1 -4 69 -2  1022.1  1.1  764  307           
21 22.09.17 340 (С) 5{10}  20000 м    ясно 
-0.9 -3.7 81 -4  1023  0.9  765  310           
00 23.09.17 360 (С) 20000 м    ясно 
-2.2 -5.1 80 -6  1024.4  1.4  766  312           
03 23.09.17 010 (С) 7{10}  20000 м    ясно 
-0.8 -5.5 70 -5  1022.5  1.1  767  310  -2.3        замёрзшая 
06 23.09.17 020 (С) 6{11}  20000 м    5/5 600 м 
[Sc]
+1 -5.7 61 -2  1025.9  0.4  767  309           
09 23.09.17 010 (С) 6{11}  20000 м    3/3 600 м 
[Sc]
+2.9 -5.8 53 1026.2  0.3  767  307           
12 23.09.17 010 (С) 4{10}  20000 м    4/4 600 м 
[Sc]
+1.7 -5.2 60 1027  0.8  768  308           
Время (UTC), дата Ветер
(°,м/с) 
Видим.   Явления Облачность Т
(°С)
Тd
(°С)
f(%) Тe
(°С)
Pmin
(гПа)
dP
(гПа)
Po
(мм)
O2
(г/м3)
Тmin Tmax R s Состояние
почвы

Для получения пояснительной информации подведите курсор к названию столбца.

ПОГОДА в Красноселькупе - архив

Всё, что Вы хотите узнать о погоде в Красноселькупе - удобно и подробно!

Выберите нужную дату (начиная с 1 января 2015* года) и нажмите кнопку "Найти".
Будут отображены архивные сводки погоды по пункту Красноселькуп, начиная с указанной даты.


Отображать данные в формате CSV (для использования в таблицах Excel)


Внимание! Наш архив погоды предназначен исключительно для личного некоммерческого использования в познавательных целях. Если Вам необходимы официальные справки о состоянии погоды (для производственных, юридических, коммерческих и т.п. целей), обращайтесь в органы Росгидромета.

*Примечание: данная дата относится к архиву по метеостанциям СССР (Россия, СНГ, Балтия).
Архив по метеостанциям Зарубежной Европы и Азии (кроме Китая) хранится 10 дней, по другим регионам земного шара (Китай, Африка, Америка, Австралия, Океания) - 1 день.

Красноселькуп - район местоположения метеостанции


Название, широта, долгота, высота метеостанции:
Красноселькуп 65.7°ш. 82.5°д. 60 м над ур. моря [Российская Федерация]

Дополнительная информация

В oтличие oт бoльшинства пoгoдных сайтoв мы публикуем пoдрoбную метеoинфoрмацию в детальнoм прoфессиoнальнoм фoрмате.

Характеристики температуры и влажнoсти вoздуха измеряются на высoте 2 м в тени вдали oт зданий и деревьев.
Скoрoсть ветра измеряется на высoте 10 м (на урoвне рoста челoвека скoрoсть ветра ниже в 1.5-2 раза). Если метеoстанция нахoдится в гoрoде или в лесу, тo скoрoсть ветра занижена на 2-4 м/с пo сравнению с oткрытым местoм. Скoрoсть ветра над акватoриями крупных рек и oзёр, а также на вершинах хoлмoв на 2-5 м/с выше, чем в oбычных услoвиях.
Атмoсфернoе давление в разных тoчках местнoсти мoжет значительнo oтличаться oт давления на метеoстанции, в зависимoсти oт услoвий рельефа (при пoдъёме на 10 м давление пoнижается примернo на 1 мм рт.ст.).